Location: ????????
(56.1167°N, 38.6333°E)
Time: 21:09:49
(UTC+00:00)

IRS-1C - Pass Details

Date: 18 November 2025
Orbit: 813 x 814 km, 99.0° (Epoch: 06 December)

Event Time Altitude Azimuth Distance (km) Brightness Sun altitude
Rises 13:54:33 0° 141° (SE) 3,332 7.2 -6.0°
Reaches altitude 10° 13:56:56 10° 136° (SE) 2,404 6.4 -6.3°
Maximum altitude 14:02:01 49° 63° (ENE) 1,051 4.3 -6.9°
Drops below altitude 10° 14:07:09 10° 350° (N) 2,417 6.5 -7.5°
Sets 14:09:33 0° 345° (NNW) 3,353 7.2 -7.9°
